Centralia, IL

9:13 AM CST on February 25, 2017 (GMT -0600)
Centralia Municipal

Weather History for KENL - December, 2013

Change the Weather History Date:

Monday, December 30, 2013

  Actual Average (KSLO) Record (KSLO)
Temperature  
Mean Temperature 18 °F -  
Max Temperature 26 °F 38 °F 67 °F (1965)
Min Temperature 10 °F 23 °F -8 °F (1983)
Degree Days  
Heating Degree Days 47    
Moisture  
Dew Point 8 °F    
Average Humidity 65    
Maximum Humidity 81    
Minimum Humidity 42    
Precipitation  
Precipitation 0.00 in - - ()
Sea Level Pressure  
Sea Level Pressure 30.28 in    
Wind  
Wind Speed 6 mph (NW)    
Max Wind Speed 12 mph    
Max Gust Speed -    
Visibility 10 miles    
Events      
Averages and records for this station are not official NWS values.
T = Trace of Precipitation, MM = Missing Value Source: NWS Daily Summary

Daily Weather History Graph

Daily Weather History Graph

Search for Another Location

Airport or City:

Trip Planner

Search our weather history database for the weather conditions in past years. The results will help you decide how hot, cold, wet, or windy it might be!

Date:

Astronomy

Dec. 30, 2013 Rise Set
Actual Time 7:13 AM CST 4:44 PM CST
Civil Twilight 6:43 AM CST 5:14 PM CST
Nautical Twilight 6:10 AM CST 5:47 PM CST
Astronomical Twilight 5:38 AM CST 6:19 PM CST
Moon 5:03 AM CST (12/30) 3:17 PM CST (12/30)
Length of Visible Light 10h 30m
Length of Day
9h 31m
Waning Crescent, 4% of the Moon is Illuminated
Dec 30
Waning Crescent
Jan 1
New
Jan 7
First Quarter
Jan 15
Full
Jan 23
Last Quarter

Hourly Weather History & Observations

Time (CST) Temp. Windchill Dew Point Humidity Pressure Visibility Wind Dir Wind Speed Gust Speed Precip Events Conditions
12:15 AM 18.3 °F 8.2 °F 11.3 °F 74% 30.25 in 10.0 mi NW 8.1 mph - N/A   Mostly Cloudy
12:35 AM 18.0 °F 6.1 °F 11.3 °F 75% 30.25 in 10.0 mi NW 10.4 mph - N/A   Mostly Cloudy
12:55 AM 17.6 °F 5.7 °F 10.4 °F 73% 30.25 in 10.0 mi NW 10.4 mph - N/A   Mostly Cloudy
1:15 AM 17.1 °F 5.8 °F 10.2 °F 75% 30.25 in 10.0 mi NW 9.2 mph - N/A   Scattered Clouds
1:35 AM 16.7 °F 6.2 °F 9.7 °F 74% 30.26 in 10.0 mi NNW 8.1 mph - N/A   Scattered Clouds
1:55 AM 16.5 °F 3.6 °F 9.3 °F 73% 30.26 in 10.0 mi NNW 11.5 mph - N/A   Mostly Cloudy
2:15 AM 15.8 °F 3.4 °F 7.7 °F 70% 30.27 in 10.0 mi NNW 10.4 mph - N/A   Mostly Cloudy
2:35 AM 15.3 °F 3.5 °F 7.7 °F 72% 30.28 in 10.0 mi NW 9.2 mph - N/A   Scattered Clouds
2:55 AM 14.9 °F 3.1 °F 7.7 °F 73% 30.28 in 10.0 mi NW 9.2 mph - N/A   Clear
3:15 AM 14.5 °F 3.6 °F 7.7 °F 74% 30.29 in 10.0 mi NW 8.1 mph - N/A   Clear
3:35 AM 14.0 °F 3.9 °F 7.9 °F 77% 30.29 in 10.0 mi NW 6.9 mph - N/A   Clear
3:55 AM 14.0 °F 2.9 °F 8.1 °F 77% 30.30 in 10.0 mi NW 8.1 mph - N/A   Clear
4:15 AM 13.8 °F 3.7 °F 7.7 °F 77% 30.30 in 10.0 mi NW 6.9 mph - N/A   Clear
4:35 AM 13.5 °F 4.4 °F 8.2 °F 80% 30.30 in 10.0 mi NNW 5.8 mph - N/A   Scattered Clouds
4:55 AM 13.1 °F 4.0 °F 7.7 °F 79% 30.30 in 10.0 mi NNW 5.8 mph - N/A   Scattered Clouds
5:15 AM 12.9 °F 2.6 °F 7.3 °F 78% 30.31 in 10.0 mi NNW 6.9 mph - N/A   Clear
5:35 AM 12.7 °F 3.6 °F 7.7 °F 80% 30.31 in 10.0 mi NNW 5.8 mph - N/A   Clear
5:55 AM 12.7 °F 5.0 °F 7.9 °F 81% 30.31 in 10.0 mi North 4.6 mph - N/A   Scattered Clouds
6:15 AM 12.0 °F -0.4 °F 7.2 °F 81% 30.32 in 10.0 mi North 9.2 mph - N/A   Scattered Clouds
6:35 AM 11.3 °F 0.7 °F 6.3 °F 80% 30.33 in 10.0 mi North 6.9 mph - N/A   Clear
6:55 AM 11.3 °F -0.4 °F 5.9 °F 79% 30.33 in 10.0 mi North 8.1 mph - N/A   Clear
7:15 AM 10.9 °F -0.8 °F 5.5 °F 79% 30.32 in 10.0 mi North 8.1 mph - N/A   Clear
7:35 AM 10.8 °F 0.0 °F 3.9 °F 74% 30.33 in 10.0 mi North 6.9 mph - N/A   Clear
7:55 AM 11.3 °F -0.4 °F 4.5 °F 74% 30.34 in 10.0 mi NNW 8.1 mph - N/A   Clear
8:15 AM 11.5 °F -0.2 °F 4.6 °F 74% 30.33 in 10.0 mi North 8.1 mph - N/A   Clear
8:35 AM 12.0 °F 2.7 °F 4.5 °F 72% 30.33 in 10.0 mi NNW 5.8 mph - N/A   Clear
8:55 AM 12.7 °F 3.6 °F 4.5 °F 70% 30.35 in 10.0 mi North 5.8 mph - N/A   Clear
9:15 AM 12.9 °F 3.8 °F 3.2 °F 65% 30.35 in 10.0 mi NNW 5.8 mph - N/A   Clear
9:35 AM 13.6 °F 6.0 °F 3.7 °F 65% 30.35 in 10.0 mi North 4.6 mph - N/A   Clear
9:55 AM 14.4 °F 6.9 °F 4.5 °F 65% 30.35 in 10.0 mi North 4.6 mph - N/A   Clear
10:15 AM 15.1 °F 7.7 °F 3.9 °F 61% 30.34 in 10.0 mi North 4.6 mph - N/A   Clear
10:35 AM 16.2 °F 9.0 °F 4.6 °F 61% 30.34 in 10.0 mi NW 4.6 mph - N/A   Clear
10:55 AM 16.9 °F 11.5 °F 4.6 °F 59% 30.33 in 10.0 mi North 3.5 mph - N/A   Clear
11:15 AM 17.8 °F - 3.9 °F 55% 30.31 in 10.0 mi Calm Calm - N/A   Clear
11:35 AM 18.0 °F - 2.5 °F 51% 30.30 in 10.0 mi Calm Calm - N/A   Clear
11:55 AM 20.1 °F 15.2 °F 4.5 °F 51% 30.29 in 10.0 mi North 3.5 mph - N/A   Clear
12:15 PM 19.9 °F - 3.2 °F 48% 30.28 in 10.0 mi Calm Calm - N/A   Clear
12:35 PM 19.8 °F - 2.3 °F 47% 30.28 in 10.0 mi Calm Calm - N/A   Clear
12:55 PM 20.3 °F - 2.7 °F 47% 30.28 in 10.0 mi Calm Calm - N/A   Clear
1:15 PM 20.7 °F - 3.0 °F 47% 30.27 in 10.0 mi Calm Calm - N/A   Clear
1:35 PM 21.6 °F - 3.9 °F 47% 30.27 in 10.0 mi Calm Calm - N/A   Clear
1:55 PM 22.1 °F - 2.3 °F 42% 30.26 in 10.0 mi Calm Calm - N/A   Clear
2:15 PM 22.6 °F 16.5 °F 3.9 °F 45% 30.25 in 10.0 mi WSW 4.6 mph - N/A   Clear
2:35 PM 22.6 °F - 3.7 °F 44% 30.25 in 10.0 mi Calm Calm - N/A   Clear
2:55 PM 23.0 °F 17.0 °F 4.8 °F 46% 30.25 in 10.0 mi SW 4.6 mph - N/A   Clear
3:15 PM 22.6 °F - 4.8 °F 46% 30.25 in 10.0 mi Calm Calm - N/A   Clear
3:35 PM 22.8 °F - 5.0 °F 47% 30.24 in 10.0 mi Calm Calm - N/A   Clear
3:55 PM 23.0 °F 17.0 °F 5.2 °F 47% 30.25 in 10.0 mi SSW 4.6 mph - N/A   Clear
4:15 PM 22.8 °F 18.2 °F 5.0 °F 47% 30.25 in 10.0 mi SW 3.5 mph - N/A   Clear
4:35 PM 21.4 °F - 7.3 °F 55% 30.25 in 10.0 mi Calm Calm - N/A   Clear
4:55 PM 21.2 °F - 7.0 °F 54% 30.25 in 10.0 mi Calm Calm - N/A   Clear
5:15 PM 21.0 °F - 9.0 °F 60% 30.26 in 10.0 mi Calm Calm - N/A   Mostly Cloudy
5:35 PM 21.2 °F - 9.0 °F 59% 30.26 in 10.0 mi Calm Calm - N/A   Mostly Cloudy
5:55 PM 20.1 °F - 10.9 °F 68% 30.26 in 10.0 mi Calm Calm - N/A   Scattered Clouds
6:15 PM 20.1 °F - 12.0 °F 71% 30.25 in 10.0 mi Calm Calm - N/A   Clear
6:35 PM 20.3 °F - 12.9 °F 73% 30.25 in 10.0 mi Calm Calm - N/A   Clear
6:55 PM 19.4 °F 12.8 °F 12.6 °F 75% 30.24 in 10.0 mi SE 4.6 mph - N/A   Scattered Clouds
7:15 PM 20.5 °F - 12.7 °F 72% 30.25 in 10.0 mi Calm Calm - N/A   Overcast
7:35 PM 21.6 °F - 12.4 °F 68% 30.25 in 10.0 mi Calm Calm - N/A   Overcast
7:55 PM 21.7 °F - 12.2 °F 67% 30.25 in 10.0 mi Calm Calm - N/A   Overcast
8:15 PM 21.7 °F - 11.5 °F 65% 30.25 in 10.0 mi Calm Calm - N/A   Overcast
8:35 PM 22.1 °F 13.7 °F 12.0 °F 65% 30.24 in 10.0 mi SSE 6.9 mph - N/A   Overcast
8:55 PM 22.5 °F 14.1 °F 11.3 °F 62% 30.24 in 10.0 mi SSE 6.9 mph - N/A   Overcast
9:15 PM 23.0 °F 14.7 °F 12.9 °F 65% 30.24 in 10.0 mi South 6.9 mph - N/A   Overcast
9:35 PM 23.9 °F 15.0 °F 12.7 °F 62% 30.23 in 10.0 mi South 8.1 mph - N/A   Overcast
9:55 PM 24.3 °F 15.4 °F 13.1 °F 63% 30.23 in 10.0 mi South 8.1 mph - N/A   Overcast
10:15 PM 24.4 °F 16.5 °F 13.6 °F 64% 30.23 in 10.0 mi SSW 6.9 mph - N/A   Overcast
10:35 PM 25.0 °F 17.1 °F 13.6 °F 62% 30.25 in 10.0 mi SW 6.9 mph - N/A   Overcast
10:55 PM 25.7 °F 16.4 °F 13.8 °F 61% 30.25 in 10.0 mi SSW 9.2 mph - N/A   Overcast
11:15 PM 26.6 °F 18.2 °F 14.0 °F 59% 30.24 in 10.0 mi SW 8.1 mph - N/A   Overcast
11:35 PM 26.6 °F 18.2 °F 14.5 °F 60% 30.25 in 10.0 mi WSW 8.1 mph - N/A   Overcast
11:55 PM 26.8 °F 18.5 °F 15.3 °F 62% 30.24 in 10.0 mi SW 8.1 mph - N/A   Overcast